TimeEDT,TemperatureF,Dew PointF,Humidity,Sea Level PressureIn,VisibilityMPH,Wind Direction,Wind SpeedMPH,Gust SpeedMPH,PrecipitationIn,Events,Conditions,WindDirDegrees,DateUTC
12:31 AM,69.8,69.8,100,29.92,10.0,NW,5.8,-,N/A,,Overcast,320,2013-10-20 04:31:00
12:56 AM,71.1,69.1,93,29.93,10.0,NNW,8.1,-,N/A,,Overcast,330,2013-10-20 04:56:00
1:38 AM,71.6,68.0,88,29.92,10.0,NNW,6.9,-,N/A,,Overcast,330,2013-10-20 05:38:00
1:56 AM,70.0,68.0,93,29.93,10.0,NNW,6.9,-,N/A,,Overcast,340,2013-10-20 05:56:00
2:39 AM,69.8,66.2,88,29.92,10.0,NNE,5.8,-,0.00,,Mostly Cloudy,20,2013-10-20 06:39:00
2:56 AM,69.1,66.9,93,29.92,10.0,NNW,3.5,-,0.00,,Mostly Cloudy,340,2013-10-20 06:56:00
3:56 AM,68.0,66.9,96,29.92,10.0,NNW,3.5,-,N/A,,Mostly Cloudy,340,2013-10-20 07:56:00
4:31 AM,68.0,66.2,94,29.92,10.0,NNW,4.6,-,N/A,,Overcast,330,2013-10-20 08:31:00
4:56 AM,66.9,64.9,93,29.92,10.0,NNW,5.8,-,N/A,,Overcast,340,2013-10-20 08:56:00
5:56 AM,66.0,63.0,90,29.93,10.0,NNW,5.8,-,N/A,,Overcast,330,2013-10-20 09:56:00
6:32 AM,66.2,62.6,88,29.93,10.0,NNE,3.5,-,N/A,,Mostly Cloudy,30,2013-10-20 10:32:00
6:49 AM,66.2,62.6,88,29.94,10.0,North,3.5,-,N/A,,Overcast,360,2013-10-20 10:49:00
6:56 AM,66.0,62.1,87,29.95,10.0,North,3.5,-,N/A,,Mostly Cloudy,360,2013-10-20 10:56:00
7:56 AM,64.9,61.0,87,29.96,10.0,NNW,4.6,-,N/A,,Mostly Cloudy,340,2013-10-20 11:56:00
8:56 AM,66.0,61.0,84,29.99,10.0,North,6.9,-,N/A,,Mostly Cloudy,360,2013-10-20 12:56:00
9:13 AM,68.0,60.8,78,29.99,10.0,North,10.4,-,N/A,,Mostly Cloudy,10,2013-10-20 13:13:00
9:56 AM,69.1,59.0,70,30.01,10.0,NNE,8.1,-,N/A,,Mostly Cloudy,30,2013-10-20 13:56:00
10:56 AM,73.0,59.0,61,30.01,10.0,NNE,6.9,-,N/A,,Mostly Cloudy,30,2013-10-20 14:56:00
11:56 AM,73.9,61.0,64,30.02,10.0,NE,6.9,-,N/A,,Mostly Cloudy,40,2013-10-20 15:56:00
12:56 PM,75.9,59.0,56,30.00,10.0,Variable,6.9,-,N/A,,Mostly Cloudy,0,2013-10-20 16:56:00
1:56 PM,77.0,62.1,60,29.99,10.0,NNE,6.9,-,N/A,,Mostly Cloudy,30,2013-10-20 17:56:00
2:56 PM,75.9,62.1,62,29.97,10.0,NNE,6.9,-,N/A,,Mostly Cloudy,30,2013-10-20 18:56:00
3:56 PM,77.0,62.1,60,29.96,10.0,ENE,9.2,-,N/A,,Mostly Cloudy,60,2013-10-20 19:56:00
4:56 PM,75.0,62.1,64,29.97,10.0,ENE,8.1,-,N/A,,Mostly Cloudy,70,2013-10-20 20:56:00
5:56 PM,73.0,62.1,68,29.98,10.0,NE,6.9,-,N/A,,Mostly Cloudy,40,2013-10-20 21:56:00
6:56 PM,71.1,64.0,78,29.99,10.0,NNE,5.8,-,N/A,,Mostly Cloudy,30,2013-10-20 22:56:00
7:56 PM,70.0,64.0,81,30.00,10.0,North,4.6,-,N/A,,Mostly Cloudy,10,2013-10-20 23:56:00
8:56 PM,69.1,64.0,84,30.01,10.0,Calm,Calm,-,N/A,,Mostly Cloudy,0,2013-10-21 00:56:00
9:56 PM,69.1,64.0,84,30.01,10.0,North,4.6,-,N/A,,Mostly Cloudy,10,2013-10-21 01:56:00
10:56 PM,68.0,64.0,87,30.01,10.0,Calm,Calm,-,N/A,,Mostly Cloudy,0,2013-10-21 02:56:00
11:56 PM,68.0,64.0,87,30.01,10.0,North,3.5,-,N/A,,Mostly Cloudy,10,2013-10-21 03:56:00